Time,TemperatureF,DewpointF,PressureIn,WindDirection,WindDirectionDegrees,WindSpeedMPH,WindSpeedGustMPH,Humidity,HourlyPrecipIn,Conditions,Clouds,dailyrainin,SoftwareType,DateUTC
2013-05-12 00:00:00,68.5,67.0,30.09,NNE,14,6.0,6.0,95,0.00,,,1.16,VWS V14.01,2013-05-12 10:00:00,
2013-05-12 00:05:00,68.5,67.0,30.09,NNE,23,3.0,5.0,95,0.00,,,0.00,VWS V14.01,2013-05-12 10:05:00,
2013-05-12 00:10:00,68.6,67.1,30.09,NNE,21,7.0,7.0,95,0.00,,,0.00,VWS V14.01,2013-05-12 10:10:00,
2013-05-12 00:15:00,68.5,66.7,30.09,NNE,21,5.0,5.0,94,0.00,,,0.00,VWS V14.01,2013-05-12 10:15:00,
2013-05-12 00:20:00,68.6,66.8,30.09,NNE,21,5.0,5.0,94,0.00,,,0.00,VWS V14.01,2013-05-12 10:20:00,
2013-05-12 00:26:00,68.6,66.8,30.08,NNE,14,8.0,9.0,94,0.00,,,0.00,VWS V14.01,2013-05-12 10:26:00,
2013-05-12 00:31:00,68.7,66.9,30.08,NNW,330,9.0,10.0,94,0.00,,,0.00,VWS V14.01,2013-05-12 10:31:00,
2013-05-12 00:36:00,68.8,67.0,30.08,NE,39,3.0,5.0,94,0.00,,,0.00,VWS V14.01,2013-05-12 10:36:00,
2013-05-12 00:41:00,68.9,67.1,30.08,ENE,66,2.0,2.0,94,0.00,,,0.00,VWS V14.01,2013-05-12 10:41:00,
2013-05-12 00:46:00,69.0,67.2,30.08,NE,48,5.0,5.0,94,0.00,,,0.00,VWS V14.01,2013-05-12 10:46:00,
2013-05-12 00:51:00,69.1,67.3,30.08,ENE,68,2.0,3.0,94,0.00,,,0.00,VWS V14.01,2013-05-12 10:51:00,
2013-05-12 00:56:00,69.1,67.3,30.08,NNE,17,4.0,4.0,94,0.00,,,0.00,VWS V14.01,2013-05-12 10:56:00,
2013-05-12 01:01:00,69.0,67.2,30.08,NE,41,4.0,5.0,94,0.00,,,0.00,VWS V14.01,2013-05-12 11:01:00,
2013-05-12 01:06:00,68.9,67.1,30.08,NE,41,4.0,5.0,94,0.00,,,0.00,VWS V14.01,2013-05-12 11:06:00,
2013-05-12 01:11:00,69.0,67.5,30.07,NNE,33,7.0,8.0,95,0.00,,,0.00,VWS V14.01,2013-05-12 11:11:00,
2013-05-12 01:16:00,68.9,67.4,30.07,North,6,8.0,8.0,95,0.00,,,0.00,VWS V14.01,2013-05-12 11:16:00,
2013-05-12 01:21:00,68.9,67.4,30.07,NNE,31,7.0,7.0,95,0.00,,,0.00,VWS V14.01,2013-05-12 11:21:00,
2013-05-12 01:26:00,68.9,67.4,30.07,NE,54,4.0,4.0,95,0.00,,,0.00,VWS V14.01,2013-05-12 11:26:00,
2013-05-12 01:31:00,68.8,67.3,30.06,NE,45,5.0,8.0,95,0.00,,,0.00,VWS V14.01,2013-05-12 11:31:00,
2013-05-12 01:37:00,68.7,67.5,30.06,NNE,12,6.0,6.0,96,0.00,,,0.00,VWS V14.01,2013-05-12 11:37:00,
2013-05-12 01:42:00,68.7,67.5,30.06,NNE,22,10.0,10.0,96,0.01,,,0.01,VWS V14.01,2013-05-12 11:42:00,
2013-05-12 01:47:00,68.7,67.5,30.06,NE,38,3.0,4.0,96,0.01,,,0.01,VWS V14.01,2013-05-12 11:47:00,
2013-05-12 01:52:00,68.6,67.4,30.06,East,85,2.0,2.0,96,0.01,,,0.01,VWS V14.01,2013-05-12 11:52:00,
2013-05-12 01:57:00,68.6,67.4,30.06,ENE,59,6.0,8.0,96,0.01,,,0.01,VWS V14.01,2013-05-12 11:57:00,
2013-05-12 02:02:00,68.4,67.2,30.06,NNE,23,6.0,7.0,96,0.01,,,0.01,VWS V14.01,2013-05-12 12:02:00,
2013-05-12 02:07:00,68.2,67.0,30.05,NNE,14,6.0,7.0,96,0.01,,,0.01,VWS V14.01,2013-05-12 12:07:00,
2013-05-12 02:12:00,68.1,66.9,30.06,NE,35,7.0,9.0,96,0.01,,,0.01,VWS V14.01,2013-05-12 12:12:00,
2013-05-12 02:18:00,68.1,66.9,30.05,NNE,26,6.0,9.0,96,0.01,,,0.01,VWS V14.01,2013-05-12 12:18:00,
2013-05-12 02:23:00,68.2,67.0,30.05,NNE,20,6.0,6.0,96,0.01,,,0.01,VWS V14.01,2013-05-12 12:23:00,
2013-05-12 02:28:00,68.3,67.1,30.05,NE,38,5.0,9.0,96,0.01,,,0.01,VWS V14.01,2013-05-12 12:28:00,
2013-05-12 02:33:00,68.4,67.2,30.05,NNE,25,5.0,5.0,96,0.01,,,0.01,VWS V14.01,2013-05-12 12:33:00,
2013-05-12 02:38:00,68.5,67.3,30.04,North,356,5.0,8.0,96,0.01,,,0.01,VWS V14.01,2013-05-12 12:38:00,
2013-05-12 02:43:00,68.6,67.4,30.05,NNE,33,3.0,5.0,96,0.00,,,0.01,VWS V14.01,2013-05-12 12:43:00,
2013-05-12 02:48:00,68.5,67.0,30.04,NNE,17,9.0,9.0,95,0.00,,,0.01,VWS V14.01,2013-05-12 12:48:00,
2013-05-12 02:53:00,68.5,67.0,30.04,East,90,5.0,5.0,95,0.00,,,0.01,VWS V14.01,2013-05-12 12:53:00,
2013-05-12 02:58:00,68.5,67.0,30.04,NE,48,6.0,8.0,95,0.00,,,0.01,VWS V14.01,2013-05-12 12:58:00,
2013-05-12 03:04:00,68.6,67.1,30.04,NNE,23,4.0,6.0,95,0.00,,,0.01,VWS V14.01,2013-05-12 13:04:00,
2013-05-12 03:09:00,68.7,66.9,30.04,NE,42,4.0,5.0,94,0.00,,,0.01,VWS V14.01,2013-05-12 13:09:00,
2013-05-12 03:14:00,68.8,67.0,30.04,NE,52,7.0,7.0,94,0.00,,,0.01,VWS V14.01,2013-05-12 13:14:00,
2013-05-12 03:19:00,68.8,67.0,30.04,North,9,8.0,8.0,94,0.00,,,0.01,VWS V14.01,2013-05-12 13:19:00,
2013-05-12 03:24:00,68.8,67.0,30.03,NNW,341,5.0,7.0,94,0.00,,,0.01,VWS V14.01,2013-05-12 13:24:00,
2013-05-12 03:29:00,68.8,67.0,30.03,NNE,28,7.0,7.0,94,0.00,,,0.01,VWS V14.01,2013-05-12 13:29:00,
2013-05-12 03:34:00,68.8,67.3,30.04,ENE,68,3.0,4.0,95,0.00,,,0.01,VWS V14.01,2013-05-12 13:34:00,
2013-05-12 03:39:00,68.7,67.2,30.04,NE,52,3.0,4.0,95,0.00,,,0.01,VWS V14.01,2013-05-12 13:39:00,
2013-05-12 03:45:00,68.6,67.4,30.04,NNE,18,6.0,7.0,96,0.00,,,0.01,VWS V14.01,2013-05-12 13:45:00,
2013-05-12 03:50:00,68.4,67.2,30.04,ENE,71,3.0,5.0,96,0.00,,,0.01,VWS V14.01,2013-05-12 13:50:00,
2013-05-12 03:55:00,68.3,67.1,30.03,NNE,20,9.0,9.0,96,0.00,,,0.01,VWS V14.01,2013-05-12 13:55:00,
2013-05-12 04:00:00,68.3,67.1,30.04,ENE,57,6.0,7.0,96,0.00,,,0.01,VWS V14.01,2013-05-12 14:00:00,
2013-05-12 04:05:00,68.3,67.1,30.04,East,89,8.0,8.0,96,0.00,,,0.01,VWS V14.01,2013-05-12 14:05:00,
2013-05-12 04:10:00,68.4,67.2,30.03,ENE,59,4.0,5.0,96,0.00,,,0.01,VWS V14.01,2013-05-12 14:10:00,
2013-05-12 04:15:00,68.5,67.6,30.04,ENE,61,10.0,10.0,97,0.00,,,0.01,VWS V14.01,2013-05-12 14:15:00,
2013-05-12 04:20:00,68.7,67.8,30.04,NE,50,2.0,3.0,97,0.00,,,0.01,VWS V14.01,2013-05-12 14:20:00,
2013-05-12 04:25:00,68.8,67.9,30.04,East,89,3.0,5.0,97,0.00,,,0.01,VWS V14.01,2013-05-12 14:25:00,
2013-05-12 04:31:00,68.7,67.8,30.04,ESE,102,5.0,5.0,97,0.00,,,0.01,VWS V14.01,2013-05-12 14:31:00,
2013-05-12 04:36:00,68.7,67.8,30.04,East,80,9.0,9.0,97,0.00,,,0.01,VWS V14.01,2013-05-12 14:36:00,
2013-05-12 04:41:00,68.7,67.8,30.04,NE,47,5.0,9.0,97,0.01,,,0.02,VWS V14.01,2013-05-12 14:41:00,
2013-05-12 04:46:00,68.8,67.9,30.04,ESE,110,6.0,7.0,97,0.01,,,0.02,VWS V14.01,2013-05-12 14:46:00,
2013-05-12 04:51:00,68.9,68.0,30.04,ESE,107,6.0,6.0,97,0.01,,,0.02,VWS V14.01,2013-05-12 14:51:00,
2013-05-12 04:56:00,68.7,67.8,30.04,East,92,10.0,10.0,97,0.01,,,0.02,VWS V14.01,2013-05-12 14:56:00,
2013-05-12 05:01:00,68.6,67.7,30.04,East,99,10.0,10.0,97,0.01,,,0.02,VWS V14.01,2013-05-12 15:01:00,
2013-05-12 05:06:00,68.7,67.8,30.04,ESE,121,5.0,5.0,97,0.01,,,0.02,VWS V14.01,2013-05-12 15:06:00,
2013-05-12 05:12:00,68.7,67.8,30.04,ESE,111,6.0,6.0,97,0.01,,,0.02,VWS V14.01,2013-05-12 15:12:00,
2013-05-12 05:17:00,68.8,67.9,30.04,ESE,119,12.0,12.0,97,0.01,,,0.02,VWS V14.01,2013-05-12 15:17:00,
2013-05-12 05:22:00,68.7,67.8,30.04,ESE,121,10.0,10.0,97,0.01,,,0.02,VWS V14.01,2013-05-12 15:22:00,
2013-05-12 05:27:00,68.8,67.9,30.04,East,85,3.0,4.0,97,0.01,,,0.02,VWS V14.01,2013-05-12 15:27:00,
2013-05-12 05:32:00,68.6,67.7,30.05,ENE,57,4.0,6.0,97,0.01,,,0.02,VWS V14.01,2013-05-12 15:32:00,
2013-05-12 05:37:00,68.6,67.7,30.05,East,80,6.0,8.0,97,0.01,,,0.02,VWS V14.01,2013-05-12 15:37:00,
2013-05-12 05:42:00,68.5,67.6,30.05,ENE,64,8.0,8.0,97,0.00,,,0.02,VWS V14.01,2013-05-12 15:42:00,
2013-05-12 05:47:00,68.4,67.5,30.05,East,93,2.0,3.0,97,0.00,,,0.02,VWS V14.01,2013-05-12 15:47:00,
2013-05-12 05:52:00,68.4,67.5,30.05,ENE,66,7.0,7.0,97,0.01,,,0.03,VWS V14.01,2013-05-12 15:52:00,
2013-05-12 05:58:00,68.3,67.4,30.05,ENE,67,8.0,8.0,97,0.01,,,0.03,VWS V14.01,2013-05-12 15:58:00,
2013-05-12 06:03:00,68.3,67.7,30.06,ENE,78,6.0,6.0,98,0.01,,,0.03,VWS V14.01,2013-05-12 16:03:00,
2013-05-12 06:08:00,68.3,67.7,30.06,ENE,70,4.0,4.0,98,0.01,,,0.03,VWS V14.01,2013-05-12 16:08:00,
2013-05-12 06:13:00,68.2,67.6,30.06,NE,42,6.0,6.0,98,0.01,,,0.03,VWS V14.01,2013-05-12 16:13:00,
2013-05-12 06:18:00,68.3,67.7,30.06,East,98,3.0,3.0,98,0.01,,,0.03,VWS V14.01,2013-05-12 16:18:00,
2013-05-12 06:23:00,68.4,67.8,30.06,ENE,60,5.0,5.0,98,0.01,,,0.03,VWS V14.01,2013-05-12 16:23:00,
2013-05-12 06:28:00,68.5,67.9,30.06,ESE,103,11.0,12.0,98,0.01,,,0.03,VWS V14.01,2013-05-12 16:28:00,
2013-05-12 06:33:00,68.3,67.7,30.06,East,83,5.0,7.0,98,0.01,,,0.03,VWS V14.01,2013-05-12 16:33:00,
2013-05-12 06:39:00,68.2,67.6,30.07,East,99,6.0,7.0,98,0.01,,,0.03,VWS V14.01,2013-05-12 16:39:00,
2013-05-12 06:44:00,68.2,67.6,30.07,ENE,72,8.0,10.0,98,0.01,,,0.03,VWS V14.01,2013-05-12 16:44:00,
2013-05-12 06:49:00,68.1,67.5,30.07,ESE,107,9.0,10.0,98,0.01,,,0.03,VWS V14.01,2013-05-12 16:49:00,
2013-05-12 06:54:00,68.1,67.5,30.08,ESE,105,4.0,5.0,98,0.01,,,0.03,VWS V14.01,2013-05-12 16:54:00,
2013-05-12 06:59:00,68.1,67.5,30.08,East,97,7.0,9.0,98,0.01,,,0.03,VWS V14.01,2013-05-12 16:59:00,
2013-05-12 07:04:00,68.1,67.5,30.08,East,100,7.0,9.0,98,0.00,,,0.03,VWS V14.01,2013-05-12 17:04:00,
2013-05-12 07:09:00,68.0,67.4,30.08,ENE,75,6.0,8.0,98,0.00,,,0.03,VWS V14.01,2013-05-12 17:09:00,
2013-05-12 07:14:00,68.1,67.5,30.08,ENE,71,5.0,9.0,98,0.00,,,0.03,VWS V14.01,2013-05-12 17:14:00,
2013-05-12 07:19:00,68.0,67.4,30.09,East,99,8.0,8.0,98,0.00,,,0.03,VWS V14.01,2013-05-12 17:19:00,
2013-05-12 07:25:00,67.9,67.3,30.09,East,80,8.0,10.0,98,0.01,,,0.04,VWS V14.01,2013-05-12 17:25:00,
2013-05-12 07:30:00,67.9,67.3,30.09,ENE,78,6.0,6.0,98,0.01,,,0.04,VWS V14.01,2013-05-12 17:30:00,
2013-05-12 07:35:00,67.9,67.3,30.09,ENE,70,10.0,10.0,98,0.01,,,0.04,VWS V14.01,2013-05-12 17:35:00,
2013-05-12 07:40:00,67.8,67.2,30.10,East,100,7.0,13.0,98,0.01,,,0.04,VWS V14.01,2013-05-12 17:40:00,
2013-05-12 07:45:00,67.7,67.1,30.10,NE,53,2.0,2.0,98,0.01,,,0.04,VWS V14.01,2013-05-12 17:45:00,
2013-05-12 07:50:00,67.7,67.1,30.09,ENE,74,4.0,5.0,98,0.01,,,0.04,VWS V14.01,2013-05-12 17:50:00,
2013-05-12 07:55:00,67.8,67.2,30.10,ENE,73,6.0,6.0,98,0.02,,,0.05,VWS V14.01,2013-05-12 17:55:00,
2013-05-12 08:00:00,67.8,67.2,30.10,NE,38,7.0,10.0,98,0.03,,,0.06,VWS V14.01,2013-05-12 18:00:00,
2013-05-12 08:05:00,67.8,67.2,30.10,NNE,24,8.0,8.0,98,0.03,,,0.06,VWS V14.01,2013-05-12 18:05:00,
2013-05-12 08:11:00,67.8,67.2,30.10,ENE,57,5.0,5.0,98,0.03,,,0.06,VWS V14.01,2013-05-12 18:11:00,
2013-05-12 08:16:00,67.9,67.3,30.10,NE,54,6.0,6.0,98,0.03,,,0.06,VWS V14.01,2013-05-12 18:16:00,
2013-05-12 08:21:00,67.8,67.2,30.10,NE,42,6.0,6.0,98,0.03,,,0.06,VWS V14.01,2013-05-12 18:21:00,
2013-05-12 08:26:00,67.8,67.2,30.10,ENE,66,4.0,4.0,98,0.03,,,0.06,VWS V14.01,2013-05-12 18:26:00,
2013-05-12 08:31:00,67.9,67.3,30.10,ENE,73,4.0,6.0,98,0.02,,,0.06,VWS V14.01,2013-05-12 18:31:00,
2013-05-12 08:36:00,67.9,67.3,30.10,ENE,76,6.0,8.0,98,0.03,,,0.07,VWS V14.01,2013-05-12 18:36:00,
2013-05-12 08:41:00,67.9,67.3,30.10,ENE,59,9.0,11.0,98,0.04,,,0.08,VWS V14.01,2013-05-12 18:41:00,
2013-05-12 08:46:00,67.9,67.3,30.11,ENE,59,8.0,8.0,98,0.04,,,0.08,VWS V14.01,2013-05-12 18:46:00,
2013-05-12 08:51:00,67.7,67.1,30.11,East,100,6.0,6.0,98,0.05,,,0.09,VWS V14.01,2013-05-12 18:51:00,
2013-05-12 08:56:00,67.7,67.1,30.11,NE,36,8.0,10.0,98,0.06,,,0.10,VWS V14.01,2013-05-12 18:56:00,
2013-05-12 09:02:00,67.5,66.9,30.11,NE,53,4.0,4.0,98,0.05,,,0.11,VWS V14.01,2013-05-12 19:02:00,
2013-05-12 09:07:00,67.6,67.0,30.11,NE,52,5.0,5.0,98,0.06,,,0.12,VWS V14.01,2013-05-12 19:07:00,
2013-05-12 09:12:00,67.7,67.1,30.11,ENE,64,7.0,9.0,98,0.07,,,0.13,VWS V14.01,2013-05-12 19:12:00,
2013-05-12 09:17:00,67.8,67.2,30.11,East,95,3.0,4.0,98,0.07,,,0.13,VWS V14.01,2013-05-12 19:17:00,
2013-05-12 09:22:00,67.8,67.2,30.11,NE,44,9.0,9.0,98,0.08,,,0.14,VWS V14.01,2013-05-12 19:22:00,
2013-05-12 09:27:00,67.8,67.2,30.11,NE,41,9.0,9.0,98,0.13,,,0.19,VWS V14.01,2013-05-12 19:27:00,
2013-05-12 09:32:00,67.9,67.3,30.11,ENE,72,8.0,8.0,98,0.15,,,0.21,VWS V14.01,2013-05-12 19:32:00,
2013-05-12 09:37:00,67.7,67.1,30.11,ENE,64,8.0,11.0,98,0.15,,,0.21,VWS V14.01,2013-05-12 19:37:00,
2013-05-12 09:43:00,67.6,67.0,30.11,NE,38,6.0,6.0,98,0.13,,,0.21,VWS V14.01,2013-05-12 19:43:00,
2013-05-12 09:48:00,67.8,67.2,30.11,NE,49,6.0,6.0,98,0.13,,,0.21,VWS V14.01,2013-05-12 19:48:00,
2013-05-12 09:53:00,67.9,67.3,30.11,ESE,103,9.0,12.0,98,0.13,,,0.22,VWS V14.01,2013-05-12 19:53:00,
2013-05-12 09:58:00,67.9,67.3,30.11,NE,46,8.0,12.0,98,0.13,,,0.22,VWS V14.01,2013-05-12 19:58:00,
2013-05-12 10:03:00,67.8,67.2,30.11,ENE,57,7.0,8.0,98,0.11,,,0.22,VWS V14.01,2013-05-12 20:03:00,
2013-05-12 10:08:00,67.9,67.3,30.11,East,80,8.0,10.0,98,0.11,,,0.22,VWS V14.01,2013-05-12 20:08:00,
2013-05-12 10:13:00,67.9,67.3,30.11,NE,52,9.0,11.0,98,0.11,,,0.23,VWS V14.01,2013-05-12 20:13:00,
2013-05-12 10:18:00,67.6,67.0,30.11,ENE,69,4.0,7.0,98,0.11,,,0.23,VWS V14.01,2013-05-12 20:18:00,
2013-05-12 10:23:00,67.6,67.0,30.11,NE,38,3.0,6.0,98,0.09,,,0.23,VWS V14.01,2013-05-12 20:23:00,
2013-05-12 10:29:00,67.6,67.0,30.11,ENE,69,7.0,10.0,98,0.11,,,0.25,VWS V14.01,2013-05-12 20:29:00,
2013-05-12 10:34:00,67.5,66.9,30.11,NE,51,10.0,11.0,98,0.05,,,0.26,VWS V14.01,2013-05-12 20:34:00,
2013-05-12 10:39:00,67.7,67.1,30.11,ESE,123,11.0,13.0,98,0.06,,,0.27,VWS V14.01,2013-05-12 20:39:00,
2013-05-12 10:44:00,67.9,67.3,30.11,ESE,106,11.0,15.0,98,0.06,,,0.27,VWS V14.01,2013-05-12 20:44:00,
2013-05-12 10:49:00,67.9,67.3,30.11,ENE,57,11.0,11.0,98,0.07,,,0.28,VWS V14.01,2013-05-12 20:49:00,
2013-05-12 10:54:00,67.7,67.1,30.11,ENE,58,10.0,15.0,98,0.06,,,0.28,VWS V14.01,2013-05-12 20:54:00,
2013-05-12 10:59:00,67.7,67.1,30.11,ENE,72,9.0,11.0,98,0.06,,,0.28,VWS V14.01,2013-05-12 20:59:00,
2013-05-12 11:04:00,67.4,66.8,30.11,ENE,59,9.0,10.0,98,0.06,,,0.28,VWS V14.01,2013-05-12 21:04:00,
2013-05-12 11:10:00,67.4,66.8,30.11,ESE,102,15.0,15.0,98,0.06,,,0.28,VWS V14.01,2013-05-12 21:10:00,
2013-05-12 11:15:00,67.5,66.9,30.11,ENE,75,9.0,12.0,98,0.06,,,0.28,VWS V14.01,2013-05-12 21:15:00,
2013-05-12 11:20:00,67.6,67.0,30.11,ENE,61,8.0,10.0,98,0.06,,,0.28,VWS V14.01,2013-05-12 21:20:00,
2013-05-12 11:25:00,67.8,67.2,30.11,East,99,7.0,11.0,98,0.05,,,0.28,VWS V14.01,2013-05-12 21:25:00,
2013-05-12 11:30:00,67.7,67.1,30.11,ENE,57,8.0,8.0,98,0.05,,,0.28,VWS V14.01,2013-05-12 21:30:00,
2013-05-12 11:35:00,67.7,67.1,30.11,NE,42,10.0,10.0,98,0.04,,,0.29,VWS V14.01,2013-05-12 21:35:00,
2013-05-12 11:40:00,67.7,67.1,30.11,NE,42,9.0,11.0,98,0.06,,,0.31,VWS V14.01,2013-05-12 21:40:00,
2013-05-12 11:45:00,67.6,67.0,30.10,ENE,72,8.0,14.0,98,0.05,,,0.32,VWS V14.01,2013-05-12 21:45:00,
2013-05-12 11:50:00,67.7,67.1,30.10,NE,46,13.0,13.0,98,0.05,,,0.32,VWS V14.01,2013-05-12 21:50:00,
2013-05-12 11:55:00,68.1,67.5,30.10,East,88,8.0,10.0,98,0.05,,,0.33,VWS V14.01,2013-05-12 21:55:00,
2013-05-12 12:00:00,67.9,67.3,30.10,ENE,61,10.0,11.0,98,0.05,,,0.33,VWS V14.01,2013-05-12 22:00:00,
2013-05-12 12:06:00,68.0,67.4,30.10,ENE,73,11.0,13.0,98,0.05,,,0.33,VWS V14.01,2013-05-12 22:06:00,
2013-05-12 12:11:00,68.1,67.5,30.10,East,82,11.0,11.0,98,0.05,,,0.33,VWS V14.01,2013-05-12 22:11:00,
2013-05-12 12:16:00,68.3,67.7,30.10,NE,56,8.0,8.0,98,0.05,,,0.33,VWS V14.01,2013-05-12 22:16:00,
2013-05-12 12:21:00,68.1,67.5,30.09,NE,37,10.0,10.0,98,0.05,,,0.33,VWS V14.01,2013-05-12 22:21:00,
2013-05-12 12:26:00,68.2,67.6,30.10,East,83,13.0,13.0,98,0.05,,,0.33,VWS V14.01,2013-05-12 22:26:00,
2013-05-12 12:31:00,68.3,67.7,30.09,ENE,70,6.0,7.0,98,0.05,,,0.33,VWS V14.01,2013-05-12 22:31:00,
2013-05-12 12:36:00,68.3,67.7,30.09,NE,40,4.0,4.0,98,0.05,,,0.33,VWS V14.01,2013-05-12 22:36:00,
2013-05-12 12:41:00,68.4,67.8,30.09,East,82,8.0,8.0,98,0.01,,,0.33,VWS V14.01,2013-05-12 22:41:00,
2013-05-12 12:46:00,68.3,67.7,30.09,ENE,62,6.0,7.0,98,0.01,,,0.33,VWS V14.01,2013-05-12 22:46:00,
2013-05-12 12:51:00,68.2,67.6,30.09,East,95,8.0,8.0,98,0.01,,,0.33,VWS V14.01,2013-05-12 22:51:00,
2013-05-12 12:56:00,68.1,67.5,30.09,East,80,4.0,4.0,98,0.01,,,0.33,VWS V14.01,2013-05-12 22:56:00,
2013-05-12 13:02:00,68.2,67.6,30.09,NE,50,8.0,9.0,98,0.00,,,0.33,VWS V14.01,2013-05-12 23:02:00,
2013-05-12 13:07:00,68.1,67.5,30.08,ENE,57,10.0,11.0,98,0.00,,,0.33,VWS V14.01,2013-05-12 23:07:00,
2013-05-12 13:12:00,68.1,67.5,30.08,East,90,10.0,13.0,98,0.00,,,0.33,VWS V14.01,2013-05-12 23:12:00,
2013-05-12 13:17:00,68.2,67.6,30.08,East,95,10.0,11.0,98,0.00,,,0.33,VWS V14.01,2013-05-12 23:17:00,
2013-05-12 13:22:00,68.2,67.6,30.08,NE,34,7.0,7.0,98,0.00,,,0.33,VWS V14.01,2013-05-12 23:22:00,
2013-05-12 13:27:00,68.3,67.7,30.08,ENE,76,4.0,7.0,98,0.00,,,0.33,VWS V14.01,2013-05-12 23:27:00,
2013-05-12 13:32:00,68.4,67.8,30.07,NE,54,4.0,4.0,98,0.00,,,0.33,VWS V14.01,2013-05-12 23:32:00,
2013-05-12 13:37:00,68.5,67.9,30.07,NE,48,7.0,7.0,98,0.00,,,0.33,VWS V14.01,2013-05-12 23:37:00,
2013-05-12 13:43:00,68.4,67.8,30.07,East,99,7.0,7.0,98,0.00,,,0.33,VWS V14.01,2013-05-12 23:43:00,
2013-05-12 13:48:00,68.3,67.7,30.07,East,83,6.0,6.0,98,0.01,,,0.34,VWS V14.01,2013-05-12 23:48:00,
2013-05-12 13:53:00,68.4,67.8,30.07,NE,34,8.0,8.0,98,0.01,,,0.34,VWS V14.01,2013-05-12 23:53:00,
2013-05-12 13:58:00,68.6,68.0,30.07,ENE,63,9.0,9.0,98,0.01,,,0.34,VWS V14.01,2013-05-12 23:58:00,
2013-05-12 14:03:00,68.6,68.0,30.07,ENE,62,8.0,9.0,98,0.01,,,0.34,VWS V14.01,2013-05-13 00:03:00,
2013-05-12 14:08:00,68.6,68.0,30.07,East,87,11.0,12.0,98,0.01,,,0.34,VWS V14.01,2013-05-13 00:08:00,
2013-05-12 14:13:00,68.5,67.9,30.06,NE,47,10.0,10.0,98,0.01,,,0.34,VWS V14.01,2013-05-13 00:13:00,
2013-05-12 14:18:00,68.5,67.9,30.06,ENE,59,5.0,6.0,98,0.01,,,0.34,VWS V14.01,2013-05-13 00:18:00,
2013-05-12 14:24:00,68.5,67.9,30.06,NNE,21,5.0,7.0,98,0.01,,,0.34,VWS V14.01,2013-05-13 00:24:00,
2013-05-12 14:29:00,68.3,67.7,30.06,North,11,9.0,11.0,98,0.01,,,0.34,VWS V14.01,2013-05-13 00:29:00,
2013-05-12 14:34:00,68.2,67.6,30.05,NNE,14,9.0,9.0,98,0.01,,,0.34,VWS V14.01,2013-05-13 00:34:00,
2013-05-12 14:39:00,68.2,67.6,30.05,NNE,30,6.0,9.0,98,0.03,,,0.36,VWS V14.01,2013-05-13 00:39:00,
2013-05-12 14:44:00,68.3,67.7,30.05,NNW,341,8.0,9.0,98,0.05,,,0.38,VWS V14.01,2013-05-13 00:44:00,
2013-05-12 14:49:00,68.4,67.8,30.05,East,88,8.0,11.0,98,0.07,,,0.40,VWS V14.01,2013-05-13 00:49:00,
2013-05-12 14:54:00,68.6,68.0,30.05,ENE,76,11.0,11.0,98,0.07,,,0.41,VWS V14.01,2013-05-13 00:54:00,
2013-05-12 14:59:00,68.6,68.0,30.05,ENE,62,8.0,11.0,98,0.07,,,0.41,VWS V14.01,2013-05-13 00:59:00,
2013-05-12 15:04:00,68.7,68.1,30.05,NNE,18,11.0,11.0,98,0.07,,,0.41,VWS V14.01,2013-05-13 01:04:00,
2013-05-12 15:10:00,68.7,68.1,30.05,East,84,8.0,8.0,98,0.07,,,0.41,VWS V14.01,2013-05-13 01:10:00,
2013-05-12 15:15:00,68.8,68.2,30.05,ESE,105,7.0,7.0,98,0.08,,,0.42,VWS V14.01,2013-05-13 01:15:00,
2013-05-12 15:20:00,68.9,68.3,30.05,NE,50,5.0,5.0,98,0.08,,,0.42,VWS V14.01,2013-05-13 01:20:00,
2013-05-12 15:25:00,68.8,68.2,30.05,NNE,31,7.0,7.0,98,0.08,,,0.42,VWS V14.01,2013-05-13 01:25:00,
2013-05-12 15:30:00,68.9,68.3,30.05,ENE,68,10.0,12.0,98,0.08,,,0.42,VWS V14.01,2013-05-13 01:30:00,
2013-05-12 15:35:00,68.9,68.3,30.05,East,79,8.0,9.0,98,0.08,,,0.42,VWS V14.01,2013-05-13 01:35:00,
2013-05-12 15:40:00,69.0,68.4,30.04,ENE,57,6.0,8.0,98,0.09,,,0.43,VWS V14.01,2013-05-13 01:40:00,
2013-05-12 15:45:00,69.0,68.4,30.04,NE,38,6.0,9.0,98,0.06,,,0.43,VWS V14.01,2013-05-13 01:45:00,
2013-05-12 15:51:00,69.0,68.4,30.04,ENE,58,8.0,8.0,98,0.06,,,0.43,VWS V14.01,2013-05-13 01:51:00,
2013-05-12 15:56:00,69.0,68.4,30.04,ENE,64,6.0,6.0,98,0.02,,,0.43,VWS V14.01,2013-05-13 01:56:00,
2013-05-12 16:01:00,69.2,68.6,30.04,ENE,67,8.0,10.0,98,0.02,,,0.43,VWS V14.01,2013-05-13 02:01:00,
2013-05-12 16:06:00,69.0,68.4,30.04,NE,56,3.0,4.0,98,0.02,,,0.43,VWS V14.01,2013-05-13 02:06:00,
2013-05-12 16:11:00,69.1,68.5,30.03,ENE,63,7.0,7.0,98,0.02,,,0.43,VWS V14.01,2013-05-13 02:11:00,
2013-05-12 16:16:00,69.1,68.5,30.04,East,96,15.0,15.0,98,0.02,,,0.43,VWS V14.01,2013-05-13 02:16:00,
2013-05-12 16:21:00,69.0,68.4,30.04,ENE,64,11.0,11.0,98,0.01,,,0.43,VWS V14.01,2013-05-13 02:21:00,
2013-05-12 16:26:00,69.0,68.4,30.04,East,99,8.0,8.0,98,0.01,,,0.43,VWS V14.01,2013-05-13 02:26:00,
2013-05-12 16:31:00,68.9,68.3,30.04,NE,51,7.0,7.0,98,0.01,,,0.43,VWS V14.01,2013-05-13 02:31:00,
2013-05-12 16:36:00,69.0,68.4,30.03,NE,37,9.0,10.0,98,0.01,,,0.43,VWS V14.01,2013-05-13 02:36:00,
2013-05-12 16:42:00,68.9,68.3,30.03,NNE,27,11.0,11.0,98,0.00,,,0.43,VWS V14.01,2013-05-13 02:42:00,
2013-05-12 16:47:00,69.1,68.5,30.03,NE,48,7.0,7.0,98,0.00,,,0.43,VWS V14.01,2013-05-13 02:47:00,
2013-05-12 16:52:00,69.1,68.5,30.03,ENE,65,9.0,9.0,98,0.00,,,0.43,VWS V14.01,2013-05-13 02:52:00,
2013-05-12 16:57:00,69.0,68.4,30.03,NE,36,17.0,19.0,98,0.01,,,0.44,VWS V14.01,2013-05-13 02:57:00,
2013-05-12 17:02:00,68.9,68.3,30.03,NE,48,12.0,12.0,98,0.01,,,0.44,VWS V14.01,2013-05-13 03:02:00,
2013-05-12 17:07:00,68.9,68.3,30.03,NE,52,4.0,6.0,98,0.01,,,0.44,VWS V14.01,2013-05-13 03:07:00,
2013-05-12 17:12:00,68.7,68.1,30.03,NE,42,6.0,8.0,98,0.01,,,0.44,VWS V14.01,2013-05-13 03:12:00,
2013-05-12 17:17:00,68.5,67.9,30.03,NE,43,9.0,12.0,98,0.01,,,0.44,VWS V14.01,2013-05-13 03:17:00,
2013-05-12 17:22:00,68.5,67.9,30.03,East,83,4.0,5.0,98,0.01,,,0.44,VWS V14.01,2013-05-13 03:22:00,
2013-05-12 17:27:00,68.6,68.0,30.03,NE,50,5.0,7.0,98,0.01,,,0.44,VWS V14.01,2013-05-13 03:27:00,
2013-05-12 17:33:00,68.7,68.1,30.03,ENE,59,10.0,10.0,98,0.01,,,0.44,VWS V14.01,2013-05-13 03:33:00,
2013-05-12 17:38:00,68.8,68.2,30.03,NNE,27,5.0,6.0,98,0.01,,,0.44,VWS V14.01,2013-05-13 03:38:00,
2013-05-12 17:43:00,68.8,68.2,30.03,NE,41,13.0,13.0,98,0.01,,,0.44,VWS V14.01,2013-05-13 03:43:00,
2013-05-12 17:48:00,68.8,68.2,30.03,NE,45,9.0,10.0,98,0.01,,,0.44,VWS V14.01,2013-05-13 03:48:00,
2013-05-12 17:53:00,68.6,68.0,30.03,NE,52,12.0,13.0,98,0.01,,,0.44,VWS V14.01,2013-05-13 03:53:00,
2013-05-12 17:58:00,68.6,68.0,30.03,NE,54,4.0,5.0,98,0.01,,,0.44,VWS V14.01,2013-05-13 03:58:00,
2013-05-12 18:01:00,68.7,68.1,30.03,ENE,66,10.0,12.0,98,0.01,,,0.44,VWS V14.01,2013-05-13 04:01:00,
2013-05-12 18:02:00,68.8,68.2,30.03,ENE,75,8.0,8.0,98,0.00,,,0.44,VWS V14.01,2013-05-13 04:02:00,
2013-05-12 18:07:00,68.7,68.1,30.04,NNE,31,10.0,11.0,98,0.00,,,0.44,VWS V14.01,2013-05-13 04:07:00,
2013-05-12 18:13:00,68.8,68.2,30.03,ENE,73,4.0,6.0,98,0.00,,,0.44,VWS V14.01,2013-05-13 04:13:00,
2013-05-12 18:18:00,68.9,68.3,30.03,ENE,67,6.0,6.0,98,0.00,,,0.44,VWS V14.01,2013-05-13 04:18:00,
2013-05-12 18:23:00,68.8,68.2,30.03,ENE,61,7.0,9.0,98,0.00,,,0.44,VWS V14.01,2013-05-13 04:23:00,
2013-05-12 18:28:00,68.6,68.0,30.03,NNE,31,10.0,10.0,98,0.00,,,0.44,VWS V14.01,2013-05-13 04:28:00,
2013-05-12 18:33:00,68.8,68.2,30.03,East,92,9.0,9.0,98,0.00,,,0.44,VWS V14.01,2013-05-13 04:33:00,
2013-05-12 18:38:00,68.9,68.3,30.04,ENE,78,10.0,14.0,98,0.00,,,0.44,VWS V14.01,2013-05-13 04:38:00,
2013-05-12 18:43:00,68.8,68.2,30.04,NE,48,7.0,8.0,98,0.00,,,0.44,VWS V14.01,2013-05-13 04:43:00,
2013-05-12 18:48:00,68.8,68.2,30.04,ENE,57,11.0,11.0,98,0.00,,,0.44,VWS V14.01,2013-05-13 04:48:00,
2013-05-12 18:53:00,68.7,68.1,30.04,North,3,4.0,6.0,98,0.00,,,0.44,VWS V14.01,2013-05-13 04:53:00,
2013-05-12 18:59:00,68.6,68.0,30.04,NE,45,9.0,11.0,98,0.00,,,0.44,VWS V14.01,2013-05-13 04:59:00,
2013-05-12 19:04:00,68.7,68.1,30.04,East,101,8.0,9.0,98,0.00,,,0.44,VWS V14.01,2013-05-13 05:04:00,
2013-05-12 19:09:00,68.8,68.2,30.03,NE,47,12.0,14.0,98,0.00,,,0.44,VWS V14.01,2013-05-13 05:09:00,
2013-05-12 19:14:00,68.9,68.3,30.04,East,96,9.0,10.0,98,0.00,,,0.44,VWS V14.01,2013-05-13 05:14:00,
2013-05-12 19:19:00,69.0,68.4,30.04,NE,53,11.0,19.0,98,0.00,,,0.44,VWS V14.01,2013-05-13 05:19:00,
2013-05-12 19:24:00,69.0,68.4,30.04,East,95,8.0,8.0,98,0.00,,,0.44,VWS V14.01,2013-05-13 05:24:00,
2013-05-12 19:29:00,69.0,68.4,30.04,ENE,66,8.0,8.0,98,0.00,,,0.44,VWS V14.01,2013-05-13 05:29:00,
2013-05-12 19:34:00,69.0,68.4,30.05,ENE,66,7.0,8.0,98,0.00,,,0.44,VWS V14.01,2013-05-13 05:34:00,
2013-05-12 19:39:00,69.0,68.4,30.05,NNE,33,7.0,7.0,98,0.00,,,0.44,VWS V14.01,2013-05-13 05:39:00,
2013-05-12 19:44:00,69.1,68.5,30.04,NE,55,10.0,11.0,98,0.00,,,0.44,VWS V14.01,2013-05-13 05:44:00,
2013-05-12 19:50:00,69.4,68.8,30.05,East,92,11.0,12.0,98,0.00,,,0.44,VWS V14.01,2013-05-13 05:50:00,
2013-05-12 19:55:00,69.5,68.9,30.05,East,95,12.0,14.0,98,0.00,,,0.44,VWS V14.01,2013-05-13 05:55:00,
2013-05-12 20:00:00,69.6,69.0,30.05,East,90,9.0,10.0,98,0.00,,,0.44,VWS V14.01,2013-05-13 06:00:00,
2013-05-12 20:05:00,69.5,68.9,30.06,ENE,67,8.0,9.0,98,0.00,,,0.44,VWS V14.01,2013-05-13 06:05:00,
2013-05-12 20:10:00,69.4,68.8,30.05,ENE,65,11.0,11.0,98,0.00,,,0.44,VWS V14.01,2013-05-13 06:10:00,
2013-05-12 20:15:00,69.5,68.9,30.06,ENE,61,9.0,11.0,98,0.00,,,0.44,VWS V14.01,2013-05-13 06:15:00,
2013-05-12 20:20:00,69.6,69.0,30.06,ENE,60,6.0,6.0,98,0.00,,,0.44,VWS V14.01,2013-05-13 06:20:00,
2013-05-12 20:25:00,69.3,68.7,30.06,ENE,61,6.0,7.0,98,0.00,,,0.44,VWS V14.01,2013-05-13 06:25:00,
2013-05-12 20:31:00,69.4,68.8,30.06,ENE,61,16.0,16.0,98,0.00,,,0.44,VWS V14.01,2013-05-13 06:31:00,
2013-05-12 20:36:00,69.4,68.8,30.06,ENE,57,9.0,11.0,98,0.00,,,0.44,VWS V14.01,2013-05-13 06:36:00,
2013-05-12 20:41:00,69.5,68.9,30.06,East,99,11.0,12.0,98,0.00,,,0.44,VWS V14.01,2013-05-13 06:41:00,
2013-05-12 20:46:00,69.6,69.0,30.06,East,80,16.0,17.0,98,0.00,,,0.44,VWS V14.01,2013-05-13 06:46:00,
2013-05-12 20:51:00,69.7,69.1,30.06,ENE,68,11.0,16.0,98,0.00,,,0.44,VWS V14.01,2013-05-13 06:51:00,
2013-05-12 20:56:00,69.6,69.0,30.06,ENE,71,7.0,9.0,98,0.00,,,0.44,VWS V14.01,2013-05-13 06:56:00,
2013-05-12 21:01:00,69.4,68.8,30.06,North,7,7.0,10.0,98,0.00,,,0.44,VWS V14.01,2013-05-13 07:01:00,
2013-05-12 21:06:00,69.0,68.4,30.07,NE,40,14.0,17.0,98,0.00,,,0.44,VWS V14.01,2013-05-13 07:06:00,
2013-05-12 21:11:00,68.7,68.1,30.07,ENE,59,10.0,15.0,98,0.00,,,0.44,VWS V14.01,2013-05-13 07:11:00,
2013-05-12 21:16:00,69.1,68.5,30.07,NE,34,10.0,10.0,98,0.00,,,0.44,VWS V14.01,2013-05-13 07:16:00,
2013-05-12 21:22:00,69.4,68.8,30.07,NE,48,7.0,10.0,98,0.00,,,0.44,VWS V14.01,2013-05-13 07:22:00,
2013-05-12 21:27:00,69.1,68.5,30.07,NNE,28,12.0,16.0,98,0.00,,,0.44,VWS V14.01,2013-05-13 07:27:00,
2013-05-12 21:32:00,68.7,68.1,30.07,North,1,13.0,13.0,98,0.00,,,0.44,VWS V14.01,2013-05-13 07:32:00,
2013-05-12 21:37:00,68.7,68.1,30.07,NNE,19,8.0,8.0,98,0.00,,,0.44,VWS V14.01,2013-05-13 07:37:00,
2013-05-12 21:42:00,68.7,68.1,30.07,NNE,23,7.0,7.0,98,0.00,,,0.44,VWS V14.01,2013-05-13 07:42:00,
2013-05-12 21:47:00,68.9,68.3,30.07,ENE,78,11.0,15.0,98,0.00,,,0.44,VWS V14.01,2013-05-13 07:47:00,
2013-05-12 21:52:00,69.1,68.5,30.07,NE,56,6.0,10.0,98,0.00,,,0.44,VWS V14.01,2013-05-13 07:52:00,
2013-05-12 21:57:00,69.3,68.7,30.07,East,101,11.0,13.0,98,0.00,,,0.44,VWS V14.01,2013-05-13 07:57:00,
2013-05-12 22:02:00,69.3,68.7,30.08,ESE,109,14.0,18.0,98,0.00,,,0.44,VWS V14.01,2013-05-13 08:02:00,
2013-05-12 22:08:00,69.0,68.4,30.08,NE,55,11.0,11.0,98,0.00,,,0.44,VWS V14.01,2013-05-13 08:08:00,
2013-05-12 22:13:00,68.8,68.2,30.08,ENE,72,13.0,13.0,98,0.00,,,0.44,VWS V14.01,2013-05-13 08:13:00,
2013-05-12 22:18:00,69.0,68.4,30.08,ENE,59,8.0,9.0,98,0.00,,,0.44,VWS V14.01,2013-05-13 08:18:00,
2013-05-12 22:23:00,68.9,68.3,30.08,East,99,10.0,10.0,98,0.00,,,0.44,VWS V14.01,2013-05-13 08:23:00,
2013-05-12 22:28:00,68.6,68.0,30.08,ENE,60,12.0,15.0,98,0.00,,,0.44,VWS V14.01,2013-05-13 08:28:00,
2013-05-12 22:33:00,68.5,67.9,30.07,NE,44,7.0,10.0,98,0.00,,,0.44,VWS V14.01,2013-05-13 08:33:00,
2013-05-12 22:38:00,68.6,68.0,30.08,ENE,60,13.0,15.0,98,0.00,,,0.44,VWS V14.01,2013-05-13 08:38:00,
2013-05-12 22:43:00,68.5,67.9,30.08,East,95,12.0,12.0,98,0.00,,,0.44,VWS V14.01,2013-05-13 08:43:00,
2013-05-12 22:49:00,68.6,68.0,30.08,NE,38,10.0,13.0,98,0.00,,,0.44,VWS V14.01,2013-05-13 08:49:00,
2013-05-12 22:54:00,68.6,68.0,30.08,East,100,10.0,11.0,98,0.00,,,0.44,VWS V14.01,2013-05-13 08:54:00,
2013-05-12 22:59:00,68.5,67.9,30.08,ENE,61,12.0,12.0,98,0.00,,,0.44,VWS V14.01,2013-05-13 08:59:00,
2013-05-12 23:04:00,68.4,67.8,30.08,NNE,16,6.0,6.0,98,0.00,,,0.44,VWS V14.01,2013-05-13 09:04:00,
2013-05-12 23:09:00,68.4,67.8,30.08,NE,41,9.0,11.0,98,0.00,,,0.44,VWS V14.01,2013-05-13 09:09:00,
2013-05-12 23:14:00,68.4,67.8,30.07,NE,35,9.0,9.0,98,0.00,,,0.44,VWS V14.01,2013-05-13 09:14:00,
2013-05-12 23:19:00,68.6,68.0,30.07,ESE,103,14.0,14.0,98,0.00,,,0.44,VWS V14.01,2013-05-13 09:19:00,
2013-05-12 23:24:00,68.6,68.0,30.07,ESE,116,11.0,12.0,98,0.00,,,0.44,VWS V14.01,2013-05-13 09:24:00,
2013-05-12 23:29:00,68.3,67.7,30.07,NE,53,15.0,19.0,98,0.00,,,0.44,VWS V14.01,2013-05-13 09:29:00,
2013-05-12 23:35:00,68.1,67.5,30.07,NE,45,9.0,12.0,98,0.00,,,0.44,VWS V14.01,2013-05-13 09:35:00,
2013-05-12 23:40:00,68.1,67.5,30.07,NNE,26,7.0,7.0,98,0.00,,,0.44,VWS V14.01,2013-05-13 09:40:00,
2013-05-12 23:45:00,68.1,67.5,30.07,NE,40,11.0,11.0,98,0.00,,,0.44,VWS V14.01,2013-05-13 09:45:00,
2013-05-12 23:50:00,68.1,67.5,30.06,NNE,26,10.0,17.0,98,0.00,,,0.44,VWS V14.01,2013-05-13 09:50:00,
2013-05-12 23:55:00,68.2,67.3,30.06,NNE,23,9.0,10.0,97,0.00,,,0.44,VWS V14.01,2013-05-13 09:55:00,